Location: Sears
(37.7625°N, 100.1060°W)
Time: 05:09:47
(UTC+00:00)

X-37B - Pass Details

Date: 02 August 2021
Orbit: 381 x 393 km, 45.0° (Epoch: 29 August)

Event Time Altitude Azimuth Distance (km) Brightness Sun altitude
Exits shadow 10:17:15 36° 270° (W) 621 1.2 -15.8°
Maximum altitude 10:18:17 61° 335° (NNW) 436 0.8 -15.6°
Drops below altitude 10° 10:21:24 10° 57° (ENE) 1,397 4.8 -15.1°
Sets 10:23:29 0° 61° (ENE) 2,253 6.3 -14.8°
